Regional Weather Roundup
Issued by NWS

Home | Current Version | Previous Version | Graphics & Text | Print | Product List | Glossary On
Versions: 1 2 3 4 5 6 7 8 9 10 11 12 13 14 15 16 17 18 19 20 21 22 23 24 25 26 27 28 29 30 31 32 33 34 35 36 37 38 39 40 41 42 43 44 45 46 47 48 49 50
000
ASUS43 KMKX 010321
RWRWI

WISCONSIN REGIONAL WEATHER ROUNDUP
NATIONAL WEATHER SERVICE MILWAUKEE/SULLIVAN WI
900 PM CST TUE FEB 28 2017

NOTE: "FAIR" INDICATES FEW OR NO CLOUDS BELOW 12,000 FEET WITH NO
SIGNIFICANT WEATHER AND/OR OBSTRUCTIONS TO VISIBILITY.

WIZ001-002-006>008-014>016-023>028-010400-
NORTHWEST WISCONSIN

CITY           SKY/WX    TMP DP  RH WIND       PRES   REMARKS
SUPERIOR ARPT  LGT SNOW  30  28  92 E10G20    29.84S WCI  21
ASHLAND        LGT SNOW  27  25  92 NE20G25   29.82R FOG     WCI  13
HAYWARD        LGT SNOW  29  24  82 N17       29.74S WCI  17
SIREN          FLURRIES  29  27  93 NE10G20   29.76R WCI  20
CUMBERLAND     CLOUDY    32  27  80 NE14G20   29.69S WCI  22
RICE LAKE      CLOUDY    32  28  85 N10G20    29.71R WCI  24
CHETEK         CLOUDY    33  29  86 N7        29.69S WCI  27
LADYSMITH      CLOUDY    33  30  88 N12       29.70R WCI  25
EAU CLAIRE     CLOUDY    35  32  88 N13G20    29.64S WCI  26
MENOMONIE      CLOUDY    35  33  94 N12       29.66S WCI  26
NEW RICHMOND   CLOUDY    32  29  88 N10       29.70S FOG     WCI  23
OSCEOLA        CLOUDY    32  28  86 N9        29.75R WCI  24
$$

WIZ003>005-009-010-017-018-010400-
NORTH CENTRAL WISCONSIN

CITY           SKY/WX    TMP DP  RH WIND       PRES   REMARKS
MANITOWISH WTR CLOUDY    29  28  99 NE10G17   29.70S WCI  19
ARBOR VITAE    LGT SNOW  32  30  93 NE7G20      N/A  WCI  25
WOODRUFF       LGT SNOW  32  30  93 NE7G20      N/A  WCI  25
RHINELANDER    CLOUDY    33  31  92 NE10G21   29.66R WCI  25
EAGLE RIVER    CLOUDY    30  28  92 NE16G25   29.68R WCI  19
LAND O LAKES   CLOUDY    29  26  90 NE9G18    29.72R WCI  21
PHILLIPS       CLOUDY    31  29  95 N14       29.68R WCI  20
TOMAHAWK       CLOUDY    33  31  92 N8G18     29.66S WCI  25
MEDFORD        CLOUDY    34  32  91 NE14G20   29.62S WCI  25
MERRILL        NOT AVBL
$$

WIZ029-030-035-036-043>047-010400-
CENTRAL WISCONSIN

CITY           SKY/WX    TMP DP  RH WIND       PRES   REMARKS
WAUSAU         LGT RAIN  37  35  92 N9        29.61R FOG     WCI  30
MOSINEE        CLOUDY    37  37 100 NE10      29.61R FOG     WCI  30
MARSHFIELD     RAIN      38  36  92 NE13      29.59R FOG     WCI  30
STEVENS POINT  DRIZZLE   36  36 100 N7        29.61R WCI  30
WAUPACA        CLOUDY    39  38  97 NE7       29.60F FOG     WCI  34
WAUTOMA        LGT RAIN  38  37  97 NE8       29.59R FOG     WCI  32
WISC RAPIDS    CLOUDY    38  38 100 NE7       29.61R FOG     WCI  33
CAMP DOUGLAS   DRIZZLE   37  37 100 VRB5      29.58R FOG     WCI  34
$$

WIZ011>013-019>022-031-037>040-048>050-010400-
NORTHEAST WISCONSIN

CITY           SKY/WX    TMP DP  RH WIND       PRES   REMARKS
ANTIGO         CLOUDY    34  34 100 NE14G20   29.62S FOG     WCI  25
SHAWANO        CLOUDY    39  37  95 NE10G17   29.63R FOG     WCI  32
OCONTO         CLOUDY    37  36  98 NE8       29.62S WCI  30
STURGEON BAY   CLOUDY    37  36  96 NE12      29.62S FOG     WCI  29
GREEN BAY      LGT SNOW  37  37 100 NE21G28   29.60F FOG     WCI  26
MANITOWOC      LGT RAIN  39  38  96 N12G17    29.57F VSB 3/4 WCI  32
APPLETON       CLOUDY    37  37 100 NE10G18   29.57S FOG     WCI  30
CLINTONVILLE   DRIZZLE   37  37 100 NE9G16    29.61S WCI  31
OSHKOSH        FOG       37  36  96 NE14      29.57S VSB 1   WCI  28
$$

WIZ032>034-041-042-053>061-010400-
SOUTHWEST WISCONSIN

CITY           SKY/WX    TMP DP  RH WIND       PRES   REMARKS
LA CROSSE      LGT RAIN  42  41  96 NW8       29.57F FOG
SPARTA         DRIZZLE   39  39 100 NE5       29.60S
VIROQUA        CLOUDY    39  39 100 N9        29.55F VSB 1/4 WCI  33
BOSCOBEL       LGT RAIN  44  43  96 NE7       29.50F FOG
PRAIRIE DU CHI CLOUDY    43  42  97 NW7       29.51F FOG
PLATTEVILLE    PTCLDY    51  50  97 NW10      29.50F
$$

WIZ056-057-062-063-064-067-068-010400-
SOUTH CENTRAL WISCONSIN

CITY           SKY/WX    TMP DP  RH WIND       PRES   REMARKS
REEDSBURG      LGT RAIN  39  39 100 NW7       29.57R VSB 1/2 WCI  34
BARABOO/DELLS  LGT RAIN  38  38  99 CALM      29.57R VSB 1/4
LONE ROCK      LGT RAIN  45  43  93 VRB6      29.53F FOG
MINERAL POINT  CLOUDY    50  50 100 NW6       29.50F
MADISON        TSTM      43  43 100 N9        29.54S
MIDDLETON      CLOUDY    47  47 100 N6        29.53S
WATERTOWN      LGT RAIN  45  45 100 E7        29.49F
MONROE         LGT RAIN  52  50  93 N12G21    29.54R
JANESVILLE     LGT RAIN  52  52 100 SE6       29.50S
$$

WIZ051-052-058>065-066-070>072-010400-
SOUTHEAST WISCONSIN

CITY           SKY/WX    TMP DP  RH WIND       PRES   REMARKS
MILWAUKEE      CLOUDY    47  45  93 CALM      29.52S FOG
WAUKESHA       FOG       43  43 100 NW3       29.53S VSB 1
MILWAUKEE/TIMM RAIN      43  39  87 N6        29.53F
RACINE         LGT RAIN  50  48  93 VRB3      29.56R VSB 1/4
KENOSHA        LGT RAIN  53  50  89 S14       29.53R
FOND DU LAC    FOG       39  37  92 N10       29.56S VSB 3/4 WCI  32
SHEBOYGAN      FOG       38  37  97 N6        29.55S VSB 1/2 WCI  33
WEST BEND      RAIN      37  37 100 N5        29.53S VSB 3/4 WCI  34
JUNEAU         DRZL/FOG  39  38  99 MISG      29.53F VSB 1/4
$$

LSZ147-162-010400-
LAKE SUPERIOR

STATION/POSITION TIME  TEMP    WIND        PRES    WAVE
                       AIR SEA DIR/SP/G            HT/PER
                 (UTC) (F)     (DEG/KT/KT) (MB)    (FT/S)
DEVILS ISLAND    0300   28      40/ 29/ 32 1011.7S
PORT WING        0239   28      50/ 21/ 27 1010.5S
SAXON HARBOR     0240   30      50/ 20/ 27 1009.1R
$$

LMZ867-665-643>646-010400-
LAKE MICHIGAN

STATION/POSITION TIME  TEMP    WIND        PRES    WAVE
                       AIR SEA DIR/SP/G            HT/PER
                 (UTC) (F)     (DEG/KT/KT) (MB)    (FT/S)
CHAMBERS ISLAND  0240   34     360/ 15/ 18 1003.4F
NORTHPORT PIER   0240   35      10/  9/ 12 1004.1S
SISTER BAY       0250   36      20/  9/ 13   N/A
KEWAUNEE LAKESHO 0254   37      20/ 12/ 19 1001.6F
SHEBOYGAN LAKESH 0300   37     350/ 15/ 17 1001.1R
PORT WASHINGTON  0230   41     340/  4/  8 1001.0F
MILWAUKEE LAKESH 0300   42      50/  5/  6   N/A
KENOSHA   LAKESH 0300   48     190/  6/ 15 1000.0
$$

TC  - TEMPERATURE IN CELSIUS
VSB - VISIBILITY IN STATUTE MILES
WCI - WIND CHILL INDEX
HX  - HEAT INDEX





USA.gov is the U.S. government's official web portal to all federal, state and local government web resources and services.